FDX1776 KPHX-KSAN

Flight info

Callsign FDX1776
Flight time 0h 55m
Altitude 34000
Route FYRBD1 MOHAK J2 HOGGZ LUCKI1
Aircraft A321/M-SDE3FGHIRWY/LB1

Departure

Time 2026-04-26 16:34
Airport Phoenix Sky Harbor International Airport (KPHX)

Arrival

Time 2026-04-26 17:29
Airport San Diego International Airport (KSAN)
Time Latitude Longitude Altitude Speed Heading
2026-04-26 16:11 33.42616 -112.01675 1120 ft 0 kts 90°
2026-04-26 16:22 33.42616 -112.01691 1120 ft 2 kts 73°
2026-04-26 16:22 33.42610 -112.01708 1120 ft 2 kts 60°
2026-04-26 16:22 33.42601 -112.01721 1120 ft 2 kts 44°
2026-04-26 16:23 33.42589 -112.01733 1120 ft 2 kts 28°
2026-04-26 16:23 33.42575 -112.01739 1120 ft 2 kts 13°
2026-04-26 16:23 33.42560 -112.01742 1120 ft 2 kts 358°
2026-04-26 16:23 33.42551 -112.01741 1120 ft 0 kts 358°
2026-04-26 16:25 33.42557 -112.01741 1120 ft 2 kts
2026-04-26 16:25 33.42581 -112.01741 1120 ft 4 kts 360°
2026-04-26 16:26 33.42625 -112.01741 1120 ft 7 kts
2026-04-26 16:26 33.42683 -112.01741 1120 ft 8 kts 360°
2026-04-26 16:26 33.42741 -112.01739 1120 ft 8 kts 11°
2026-04-26 16:26 33.42776 -112.01700 1122 ft 6 kts 67°
2026-04-26 16:27 33.42800 -112.01665 1123 ft 4 kts 34°
2026-04-26 16:27 33.42839 -112.01656 1124 ft 8 kts 359°
2026-04-26 16:27 33.42915 -112.01658 1124 ft 11 kts 359°
2026-04-26 16:27 33.42987 -112.01638 1124 ft 10 kts 59°
2026-04-26 16:28 33.42992 -112.01541 1124 ft 14 kts 88°
2026-04-26 16:28 33.42994 -112.01387 1126 ft 20 kts 90°
2026-04-26 16:28 33.42994 -112.01223 1127 ft 18 kts 89°
2026-04-26 16:28 33.42994 -112.01070 1127 ft 18 kts 90°
2026-04-26 16:29 33.42994 -112.00916 1127 ft 18 kts 90°
2026-04-26 16:29 33.42992 -112.00763 1127 ft 17 kts 90°
2026-04-26 16:29 33.42993 -112.00620 1126 ft 16 kts 90°
2026-04-26 16:29 33.42994 -112.00484 1126 ft 15 kts 90°
2026-04-26 16:30 33.42994 -112.00353 1126 ft 15 kts 90°
2026-04-26 16:30 33.42993 -112.00229 1126 ft 14 kts 90°
2026-04-26 16:30 33.42993 -112.00108 1126 ft 14 kts 88°
2026-04-26 16:30 33.42997 -111.99995 1126 ft 13 kts 87°
2026-04-26 16:31 33.42998 -111.99883 1127 ft 13 kts 91°
2026-04-26 16:31 33.42995 -111.99777 1127 ft 12 kts 92°
2026-04-26 16:31 33.42994 -111.99674 1127 ft 12 kts 89°
2026-04-26 16:31 33.42994 -111.99577 1128 ft 10 kts 90°
2026-04-26 16:32 33.42994 -111.99497 1130 ft 8 kts 90°
2026-04-26 16:32 33.42994 -111.99408 1130 ft 13 kts 89°
2026-04-26 16:32 33.43027 -111.99343 1130 ft 7 kts 13°
2026-04-26 16:32 33.43077 -111.99343 1130 ft 7 kts 357°
2026-04-26 16:33 33.43104 -111.99369 1129 ft 6 kts 278°
2026-04-26 16:33 33.43104 -111.99397 1129 ft 0 kts 269°
2026-04-26 16:33 33.43103 -111.99433 1128 ft 23 kts 270°
2026-04-26 16:34 33.43104 -111.99911 1127 ft 90 kts 268°
2026-04-26 16:34 33.43105 -112.00894 1129 ft 145 kts 269°
2026-04-26 16:34 33.43104 -112.02226 1315 ft 169 kts 268°
2026-04-26 16:34 33.43102 -112.03635 1808 ft 171 kts 267°
2026-04-26 16:35 33.43087 -112.05048 2339 ft 171 kts 267°
2026-04-26 16:35 33.43070 -112.06453 2849 ft 168 kts 267°
2026-04-26 16:35 33.42870 -112.07820 3065 ft 171 kts 250°
2026-04-26 16:35 33.42411 -112.09188 3275 ft 181 kts 247°
2026-04-26 16:36 33.41909 -112.10624 3501 ft 192 kts 247°
2026-04-26 16:36 33.41401 -112.12142 3689 ft 206 kts 248°
2026-04-26 16:36 33.40866 -112.13799 3867 ft 223 kts 249°
2026-04-26 16:36 33.40279 -112.15588 4141 ft 238 kts 244°
2026-04-26 16:37 33.39205 -112.17154 4435 ft 255 kts 217°
2026-04-26 16:37 33.37552 -112.18000 4995 ft 263 kts 192°
2026-04-26 16:37 33.35720 -112.17889 5636 ft 271 kts 169°
2026-04-26 16:37 33.33933 -112.17251 6281 ft 273 kts 167°
2026-04-26 16:38 33.32097 -112.16584 6929 ft 275 kts 167°
2026-04-26 16:38 33.30264 -112.15924 7612 ft 276 kts 167°
2026-04-26 16:38 33.28404 -112.15319 8282 ft 274 kts 176°
2026-04-26 16:38 33.26561 -112.15481 8916 ft 267 kts 201°
2026-04-26 16:39 33.24972 -112.16544 9577 ft 263 kts 223°
2026-04-26 16:39 33.23875 -112.18247 10192 ft 264 kts 243°
2026-04-26 16:39 33.23396 -112.20396 10531 ft 279 kts 264°
2026-04-26 16:39 33.23353 -112.22765 10800 ft 292 kts 261°
2026-04-26 16:40 33.22746 -112.25120 11063 ft 301 kts 239°
2026-04-26 16:40 33.21510 -112.27115 11605 ft 303 kts 233°
2026-04-26 16:40 33.20250 -112.29127 12231 ft 304 kts 234°
2026-04-26 16:40 33.18980 -112.31166 12775 ft 305 kts 234°
2026-04-26 16:41 33.17709 -112.33183 13362 ft 307 kts 234°
2026-04-26 16:41 33.16434 -112.35193 13923 ft 308 kts 234°
2026-04-26 16:41 33.15125 -112.37240 14494 ft 308 kts 234°
2026-04-26 16:41 33.13829 -112.39258 15040 ft 308 kts 234°
2026-04-26 16:42 33.12532 -112.41275 15564 ft 309 kts 234°
2026-04-26 16:42 33.11219 -112.43314 16116 ft 309 kts 234°
2026-04-26 16:42 33.09920 -112.45328 16638 ft 309 kts 235°
2026-04-26 16:42 33.08612 -112.47351 17142 ft 309 kts 235°
2026-04-26 16:43 33.07300 -112.49381 17628 ft 309 kts 235°
2026-04-26 16:43 33.05989 -112.51408 18112 ft 310 kts 235°
2026-04-26 16:43 33.04678 -112.53428 18618 ft 309 kts 235°
2026-04-26 16:43 33.03365 -112.55460 19084 ft 310 kts 235°
2026-04-26 16:44 33.02042 -112.57501 19440 ft 314 kts 235°
2026-04-26 16:44 33.00705 -112.59563 19761 ft 318 kts 235°
2026-04-26 16:44 32.99351 -112.61646 20186 ft 319 kts 235°
2026-04-26 16:44 32.98002 -112.63721 20603 ft 319 kts 236°
2026-04-26 16:45 32.96781 -112.65900 20998 ft 319 kts 242°
2026-04-26 16:45 32.95859 -112.68310 21427 ft 319 kts 249°
2026-04-26 16:45 32.95253 -112.70842 21821 ft 322 kts 256°
2026-04-26 16:45 32.94864 -112.73483 22212 ft 324 kts 257°
2026-04-26 16:46 32.94495 -112.76110 22588 ft 325 kts 257°
2026-04-26 16:46 32.94132 -112.78745 22990 ft 325 kts 257°
2026-04-26 16:46 32.93765 -112.81433 23363 ft 327 kts 257°
2026-04-26 16:46 32.93401 -112.84086 23727 ft 328 kts 258°
2026-04-26 16:47 32.93038 -112.86747 24071 ft 329 kts 257°
2026-04-26 16:47 32.92676 -112.89426 24388 ft 330 kts 257°
2026-04-26 16:47 32.92303 -112.92149 24688 ft 332 kts 257°
2026-04-26 16:47 32.91936 -112.94836 24998 ft 333 kts 257°
2026-04-26 16:48 32.91567 -112.97546 25321 ft 334 kts 257°
2026-04-26 16:48 32.91192 -113.00288 25629 ft 335 kts 257°
2026-04-26 16:48 32.90821 -113.03006 25930 ft 336 kts 257°
2026-04-26 16:48 32.90444 -113.05756 26211 ft 338 kts 257°
2026-04-26 16:49 32.90063 -113.08529 26493 ft 339 kts 257°
2026-04-26 16:49 32.89685 -113.11282 26783 ft 340 kts 257°
2026-04-26 16:49 32.89306 -113.14047 27081 ft 340 kts 257°
2026-04-26 16:49 32.88926 -113.16805 27359 ft 341 kts 257°
2026-04-26 16:50 32.88539 -113.19611 27629 ft 343 kts 257°
2026-04-26 16:50 32.88156 -113.22389 27892 ft 343 kts 257°
2026-04-26 16:50 32.87766 -113.25204 28157 ft 344 kts 257°
2026-04-26 16:50 32.87380 -113.27985 28384 ft 346 kts 257°
2026-04-26 16:51 32.86984 -113.30818 28617 ft 347 kts 257°
2026-04-26 16:51 32.86591 -113.33657 28862 ft 348 kts 257°
2026-04-26 16:51 32.86198 -113.36468 29075 ft 349 kts 257°
2026-04-26 16:51 32.85796 -113.39336 29289 ft 350 kts 257°
2026-04-26 16:52 32.85397 -113.42177 29533 ft 350 kts 257°
2026-04-26 16:52 32.85136 -113.44051 29676 ft 350 kts 257°
2026-04-26 16:52 32.84598 -113.47878 29995 ft 350 kts 257°
2026-04-26 16:52 32.84200 -113.50706 30277 ft 349 kts 257°
2026-04-26 16:53 32.83802 -113.53549 30578 ft 347 kts 257°
2026-04-26 16:53 32.83405 -113.56371 30838 ft 346 kts 257°
2026-04-26 16:53 32.83007 -113.59174 31081 ft 345 kts 257°
2026-04-26 16:53 32.82612 -113.61951 31306 ft 344 kts 257°
2026-04-26 16:54 32.82212 -113.64774 31529 ft 344 kts 257°
2026-04-26 16:54 32.81820 -113.67540 31769 ft 344 kts 257°
2026-04-26 16:54 32.81424 -113.70345 32041 ft 342 kts 257°
2026-04-26 16:54 32.81028 -113.73124 32298 ft 341 kts 257°
2026-04-26 16:55 32.80632 -113.75905 32478 ft 341 kts 257°
2026-04-26 16:55 32.80238 -113.78647 32523 ft 337 kts 257°
2026-04-26 16:55 32.79849 -113.81380 32814 ft 334 kts 257°
2026-04-26 16:55 32.79462 -113.84063 33186 ft 330 kts 257°
2026-04-26 16:56 32.78691 -113.89426 33542 ft 331 kts 256°
2026-04-26 16:56 32.78304 -113.92111 33638 ft 333 kts 257°
2026-04-26 16:56 32.77980 -113.94823 33776 ft 335 kts 258°
2026-04-26 16:57 32.77747 -113.97572 33903 ft 337 kts 261°
2026-04-26 16:57 32.77520 -114.05966 33927 ft 341 kts 265°
2026-04-26 16:58 32.77660 -114.10658 33927 ft 342 kts 266°
2026-04-26 16:59 32.78012 -114.20039 33926 ft 343 kts 266°
2026-04-26 17:00 32.78455 -114.31336 33934 ft 345 kts 267°
2026-04-26 17:00 32.79432 -114.39854 33939 ft 350 kts 274°
2026-04-26 17:01 32.80686 -114.45496 33628 ft 355 kts 278°
2026-04-26 17:01 32.81433 -114.48269 33379 ft 354 kts 278°
2026-04-26 17:01 32.82185 -114.51044 33126 ft 353 kts 278°
2026-04-26 17:02 32.82941 -114.53826 32872 ft 350 kts 278°
2026-04-26 17:02 32.83688 -114.56562 32620 ft 349 kts 278°
2026-04-26 17:02 32.84439 -114.59312 32368 ft 350 kts 279°
2026-04-26 17:02 32.85181 -114.62024 32118 ft 350 kts 278°
2026-04-26 17:03 32.85932 -114.64777 31864 ft 351 kts 279°
2026-04-26 17:03 32.86669 -114.67572 31609 ft 350 kts 276°
2026-04-26 17:03 32.87216 -114.70381 31357 ft 346 kts 273°
2026-04-26 17:03 32.87565 -114.73178 31107 ft 344 kts 270°
2026-04-26 17:04 32.87734 -114.76012 30851 ft 341 kts 266°
2026-04-26 17:04 32.87729 -114.78796 30602 ft 341 kts 264°
2026-04-26 17:04 32.87683 -114.81638 30348 ft 343 kts 264°
2026-04-26 17:04 32.87631 -114.84461 30095 ft 344 kts 264°
2026-04-26 17:05 32.87577 -114.87291 29843 ft 345 kts 264°
2026-04-26 17:05 32.87521 -114.90135 29589 ft 345 kts 264°
2026-04-26 17:05 32.87460 -114.93013 29332 ft 346 kts 264°
2026-04-26 17:05 32.87401 -114.95854 29081 ft 347 kts 264°
2026-04-26 17:06 32.87335 -114.98740 28828 ft 349 kts 264°
2026-04-26 17:06 32.87268 -115.01620 28576 ft 350 kts 264°
2026-04-26 17:06 32.87200 -115.04512 28324 ft 350 kts 264°
2026-04-26 17:06 32.87134 -115.07367 28071 ft 348 kts 264°
2026-04-26 17:07 32.87069 -115.10247 27824 ft 348 kts 264°
2026-04-26 17:07 32.86999 -115.13101 27575 ft 347 kts 264°
2026-04-26 17:07 32.86929 -115.15939 27322 ft 346 kts 264°
2026-04-26 17:07 32.86858 -115.18812 27067 ft 345 kts 264°
2026-04-26 17:08 32.86789 -115.21660 26812 ft 345 kts 264°
2026-04-26 17:08 32.86716 -115.24498 26564 ft 344 kts 264°
2026-04-26 17:08 32.86644 -115.27341 26320 ft 344 kts 265°
2026-04-26 17:08 32.86573 -115.30145 26076 ft 344 kts 264°
2026-04-26 17:09 32.86427 -115.33007 25820 ft 342 kts 262°
2026-04-26 17:09 32.86271 -115.34861 25651 ft 341 kts 261°
2026-04-26 17:09 32.85824 -115.38551 25317 ft 340 kts 258°
2026-04-26 17:09 32.85444 -115.41308 25065 ft 340 kts 259°
2026-04-26 17:10 32.85063 -115.44075 24819 ft 340 kts 259°
2026-04-26 17:10 32.84676 -115.46874 24574 ft 339 kts 259°
2026-04-26 17:10 32.84283 -115.49622 24321 ft 338 kts 258°
2026-04-26 17:10 32.83844 -115.52361 24070 ft 338 kts 257°
2026-04-26 17:11 32.83395 -115.55084 23823 ft 338 kts 257°
2026-04-26 17:11 32.82944 -115.57815 23571 ft 337 kts 257°
2026-04-26 17:11 32.82491 -115.60565 23321 ft 336 kts 258°
2026-04-26 17:11 32.82046 -115.63282 23062 ft 337 kts 258°
2026-04-26 17:12 32.81148 -115.68725 22561 ft 335 kts 257°
2026-04-26 17:12 32.80700 -115.71449 22304 ft 336 kts 258°
2026-04-26 17:13 32.79805 -115.76889 21812 ft 336 kts 257°
2026-04-26 17:13 32.79355 -115.79601 21544 ft 336 kts 258°
2026-04-26 17:13 32.78538 -115.85046 20906 ft 335 kts 261°
2026-04-26 17:14 32.78287 -115.87816 20486 ft 333 kts 263°
2026-04-26 17:14 32.77880 -115.93241 19517 ft 331 kts 263°
2026-04-26 17:14 32.77676 -115.95963 19054 ft 329 kts 263°
2026-04-26 17:15 32.77272 -116.01324 18159 ft 326 kts 264°
2026-04-26 17:15 32.77070 -116.04008 17675 ft 327 kts 263°
2026-04-26 17:15 32.76866 -116.06717 17183 ft 327 kts 264°
2026-04-26 17:16 32.76664 -116.09373 16745 ft 326 kts 264°
2026-04-26 17:16 32.76463 -116.12035 16292 ft 325 kts 264°
2026-04-26 17:16 32.76259 -116.14695 15838 ft 324 kts 264°
2026-04-26 17:16 32.76053 -116.17374 15399 ft 323 kts 264°
2026-04-26 17:17 32.75851 -116.20023 14933 ft 322 kts 264°
2026-04-26 17:17 32.75647 -116.22667 14436 ft 322 kts 264°
2026-04-26 17:17 32.75446 -116.25288 14138 ft 315 kts 264°
2026-04-26 17:17 32.75250 -116.27837 13954 ft 305 kts 264°
2026-04-26 17:18 32.75060 -116.30294 13677 ft 299 kts 264°
2026-04-26 17:18 32.74869 -116.32739 13260 ft 297 kts 265°
2026-04-26 17:18 32.74679 -116.35197 12830 ft 297 kts 265°
2026-04-26 17:18 32.74488 -116.37621 12391 ft 296 kts 265°
2026-04-26 17:19 32.74113 -116.42442 11569 ft 293 kts 266°
2026-04-26 17:19 32.73924 -116.44843 11149 ft 292 kts 266°
2026-04-26 17:19 32.73740 -116.47206 10930 ft 284 kts 266°
2026-04-26 17:20 32.73557 -116.49513 10799 ft 273 kts 266°
2026-04-26 17:20 32.73434 -116.50980 10619 ft 270 kts 266°
2026-04-26 17:20 32.73149 -116.53946 10138 ft 269 kts 265°
2026-04-26 17:20 32.72934 -116.56145 9738 ft 269 kts 266°
2026-04-26 17:21 32.72720 -116.58353 9382 ft 267 kts 265°
2026-04-26 17:21 32.72514 -116.60480 9015 ft 266 kts 265°
2026-04-26 17:21 32.72299 -116.62700 8657 ft 265 kts 265°
2026-04-26 17:21 32.72087 -116.64874 8292 ft 264 kts 265°
2026-04-26 17:22 32.71891 -116.67033 7920 ft 263 kts 265°
2026-04-26 17:22 32.71722 -116.69197 7600 ft 261 kts 265°
2026-04-26 17:22 32.71558 -116.71336 7256 ft 260 kts 266°
2026-04-26 17:22 32.71396 -116.73445 6925 ft 259 kts 265°
2026-04-26 17:23 32.71230 -116.75568 6597 ft 258 kts 265°
2026-04-26 17:23 32.71065 -116.77677 6271 ft 257 kts 265°
2026-04-26 17:23 32.70896 -116.79809 5999 ft 254 kts 265°
2026-04-26 17:23 32.70628 -116.81818 5968 ft 241 kts 258°
2026-04-26 17:24 32.70138 -116.83709 5900 ft 236 kts 252°
2026-04-26 17:24 32.69577 -116.85530 5542 ft 238 kts 251°
2026-04-26 17:24 32.68997 -116.87380 5203 ft 239 kts 251°
2026-04-26 17:24 32.68428 -116.89232 4835 ft 241 kts 252°
2026-04-26 17:25 32.67865 -116.91132 4367 ft 247 kts 252°
2026-04-26 17:25 32.67363 -116.93059 4070 ft 243 kts 263°
2026-04-26 17:25 32.67477 -116.95030 3791 ft 239 kts 285°
2026-04-26 17:25 32.67952 -116.96905 3560 ft 235 kts 286°
2026-04-26 17:26 32.68412 -116.98720 3406 ft 229 kts 286°
2026-04-26 17:26 32.68860 -117.00521 3213 ft 225 kts 286°
2026-04-26 17:26 32.69299 -117.02300 3011 ft 221 kts 286°
2026-04-26 17:26 32.69724 -117.04036 2817 ft 216 kts 286°
2026-04-26 17:27 32.70130 -117.05695 2513 ft 207 kts 286°
2026-04-26 17:27 32.70522 -117.07291 2229 ft 199 kts 285°
2026-04-26 17:27 32.70899 -117.08840 1914 ft 191 kts 285°
2026-04-26 17:27 32.71260 -117.10327 1576 ft 181 kts 285°
2026-04-26 17:28 32.71595 -117.11708 1291 ft 170 kts 285°
2026-04-26 17:28 32.71909 -117.13002 1001 ft 158 kts 285°
2026-04-26 17:28 32.72201 -117.14208 751 ft 146 kts 285°
2026-04-26 17:28 32.72478 -117.15358 545 ft 144 kts 285°
2026-04-26 17:29 32.72767 -117.16501 376 ft 145 kts 286°
2026-04-26 17:29 32.72947 -117.17256 225 ft 144 kts 285°
2026-04-26 17:29 32.73308 -117.18749 23 ft 127 kts 286°
2026-04-26 17:29 32.73464 -117.19411 23 ft 39 kts 285°
2026-04-26 17:30 32.73498 -117.19550 22 ft 28 kts 286°
2026-04-26 17:30 32.73525 -117.19779 20 ft 19 kts 257°
2026-04-26 17:30 32.73487 -117.19840 20 ft 7 kts 178°
2026-04-26 17:30 32.73454 -117.19791 20 ft 8 kts 106°
2026-04-26 17:31 32.73436 -117.19721 21 ft 9 kts 107°
2026-04-26 17:31 32.73417 -117.19643 21 ft 10 kts 107°
2026-04-26 17:31 32.73396 -117.19559 22 ft 11 kts 105°
2026-04-26 17:31 32.73376 -117.19473 23 ft 11 kts 106°
2026-04-26 17:32 32.73353 -117.19380 23 ft 12 kts 106°
2026-04-26 17:32 32.73328 -117.19279 23 ft 13 kts 106°
2026-04-26 17:32 32.73319 -117.19188 23 ft 10 kts 69°
2026-04-26 17:32 32.73378 -117.19139 23 ft 10 kts 31°
2026-04-26 17:33 32.73445 -117.19093 23 ft 11 kts 29°
2026-04-26 17:33 32.73479 -117.19013 23 ft 12 kts 102°
2026-04-26 17:33 32.73455 -117.18909 23 ft 13 kts 105°
2026-04-26 17:34 32.73401 -117.18685 23 ft 14 kts 106°
2026-04-26 17:34 32.73371 -117.18562 23 ft 15 kts 105°
2026-04-26 17:34 32.73346 -117.18443 23 ft 12 kts 86°
2026-04-26 17:34 32.73402 -117.18398 23 ft 10 kts 14°
2026-04-26 17:35 32.73473 -117.18419 23 ft 11 kts 326°
2026-04-26 17:35 32.73539 -117.18475 23 ft 12 kts 323°
2026-04-26 17:35 32.73609 -117.18535 23 ft 12 kts 324°
2026-04-26 17:35 32.73680 -117.18595 23 ft 12 kts 324°
2026-04-26 17:36 32.73754 -117.18626 23 ft 9 kts 354°
2026-04-26 17:36 32.73805 -117.18632 23 ft 4 kts 355°
2026-04-26 17:36 32.73815 -117.18632 23 ft 0 kts 355°